Regional Weather Roundup
Issued by NWS

Home | Current Version | Previous Version | Graphics & Text | Print | Product List | Glossary On
Versions: 1 2 3 4 5 6 7 8 9 10 11 12 13 14 15 16 17 18 19 20 21 22 23 24 25 26 27 28 29 30 31 32 33 34 35 36 37 38 39 40 41 42 43 44 45 46 47 48 49 50
000
ASUS43 KDMX 050104
RWRIA

WEATHER ROUNDUP FOR IOWA
NATIONAL WEATHER SERVICE DES MOINES IA
  ISSUED BY NWS QUAD CITIES IA IL
700 PM CST WED MAR 04 2015

NOTE: "FAIR" INDICATES FEW OR NO CLOUDS BELOW 12,000 FEET WITH NO
SIGNIFICANT WEATHER AND/OR OBSTRUCTIONS TO VISIBILITY.

* - THESE STATIONS ARE NOT NWS STATIONS...THUS NOT UNDER NWS
QUALITY CONTROL.  THEY ALSO DO NOT REPORT WEATHER SUCH
AS PRECIPITATION OR FOG.

IAZ001>003-012>014-020>022-031>034-043>046-050200-
   NORTHWEST IOWA

CITY           SKY/WX    TMP DP  RH WIND       PRES   REMARKS
CARROLL *      MOCLDY    12   0  57 NW18      30.36R WCI  -5
CHEROKEE *     CLEAR      7  -4  59 N12G17    30.39R WCI  -8
DENNISON *     CLEAR     12  -4  48 N9G15     30.37R WCI   0
LE MARS *      CLEAR      9  -4  56 N12G17    30.40R WCI  -6
ORANGE CITY *  CLEAR      7  -6  56 N13G18    30.36R WCI  -9
SHELDON *      CLEAR      5  -8  56 NW17      30.34R WCI -14
SIOUX CITY     CLEAR     13  -3  49 N12       30.41R WCI  -1
SPENCER        PTCLDY     5  -2  72 NW14G23   30.35R WCI -12
STORM LAKE *   CLEAR      7  -2  66 NW14G21   30.36R WCI -10
$$

IAZ055>058-069>071-079>083-090>094-050200-
   SOUTHWEST IOWA

CITY           SKY/WX    TMP DP  RH WIND       PRES   REMARKS
ATLANTIC *     CLEAR     16   0  48 N13       30.37R WCI   2
AUDUBON *      CLEAR     14   0  52 NW10      30.36R WCI   1
CLARINDA *     CLEAR     23   0  36 NW9G16    30.39R WCI  13
COUNCIL BLFS * CLEAR     19  -2  38 N13G21    30.35R WCI   7
CRESTON *      PTCLDY    18   0  45 N17       30.35R WCI   2
HARLAN *       CLEAR     14   0  52 N12G17    30.41R WCI   0
LAMONI         PTCLDY    23   5  46 NW14      30.33R WCI  11
RED OAK *      CLEAR     19   1  45 N14       30.38R WCI   6
SHENANDOAH *   CLEAR     21   0  39 N9        30.39R WCI  11
$$

IAZ047>049-059>061-072>074-084-050200-
   CENTRAL IOWA

CITY           SKY/WX    TMP DP  RH WIND       PRES   REMARKS
AMES           LGT SNOW  16  10  77 N13       30.34R WCI   2
ANKENY *       CLEAR     18   3  53 NW16G23   30.34R WCI   3
BOONE *        LGT SNOW  16  12  86 NW12      30.31R WCI   3
CHARITON *     MOCLDY    21   3  45 NW17      30.33R WCI   7
DES MOINES     PTCLDY    19   3  49 NW15      30.34R WCI   5
GRINNELL *     PTCLDY    14  10  81 N7        30.31R WCI   4
KNOXVILLE *    PTCLDY    21   1  42 NW17      30.31R WCI   7
MARSHALLTOWN   CLEAR      7   2  80 N7        30.31R WCI  -5
NEWTON *       LGT SNOW  16  12  86 N13G20    30.32R WCI   2
PELLA *        CLEAR     20  10  63 NW15G21   30.34R WCI   6
PERRY *          N/A     16   4  59 NW13G22   30.35R WCI   2
$$

IAZ004>006-015-016-023>025-035-036-050200-
   NORTH CENTRAL IOWA

CITY           SKY/WX    TMP DP  RH WIND       PRES   REMARKS
ALGONA *       MOCLDY     9   9 100 N14       30.35R WCI  -8
CLARION *      CLOUDY    10   3  72 N8        30.34R WCI  -1
ESTHERVILLE    MOCLDY     5  -2  72 NW17      30.33R WCI -14
FORT DODGE *   MOCLDY    12   1  62 NW3       30.36R
MASON CITY     CLEAR      6  -3  66 NW13      30.34R WCI -10
FOREST CITY *  FAIR       9  -4  56 NW9       30.33R WCI  -5
WEBSTER CITY * MOCLDY    12   5  73 NW16      30.32R WCI  -4
IOWA FALLS *   CLOUDY    11   6  78 NW13      30.32R WCI  -4
$$

IAZ007>011-017>019-026>030-037>042-050>054-066-050200-
   NORTHEAST IOWA

CITY           SKY/WX    TMP DP  RH WIND       PRES   REMARKS
CEDAR RAPIDS   MOCLDY    13   4  67 N12       30.29R WCI  -1
CHARLES CITY * CLOUDY     7   0  72 NW10      30.32R WCI  -8
CLINTON *      PTCLDY     7   0  72 NW7       30.31R WCI  -5
DECORAH *      CLEAR      9  -2  61 VRB7      30.28R WCI  -3
DUBUQUE        PTCLDY     7  -2  66 NW8       30.26R WCI  -6
MONTICELLO *   PTCLDY    10   0  61 NW5       30.30R WCI   2
OELWEIN *      PTCLDY     7   0  72 N13       30.30R WCI  -9
WATERLOO       CLEAR      7   0  73 NW10      30.31R WCI  -8
$$

IAZ064-065-067-068-078-050200-
   EAST CENTRAL IOWA

CITY           SKY/WX    TMP DP  RH WIND       PRES   REMARKS
DAVENPORT      PTCLDY    11   0  61 NW9       30.31R WCI  -2
IOWA CITY      CLOUDY    16   4  59 NW7       30.32R WCI   6
MT. PLEASANT * CLEAR     15   7  69 E6        30.31R WCI   7
MUSCATINE *    CLEAR     18   5  57 N5        30.33R WCI  11
QUAD CITIES    PTCLDY    16   2  54 NW3       30.32R
$$

IAZ062-063-075>077-085>089-095>099-050200-
   SOUTHEAST IOWA

CITY           SKY/WX    TMP DP  RH WIND       PRES   REMARKS
BURLINGTON     PTCLDY    17   2  51 N3        30.31R
FAIRFIELD *    CLOUDY    18   9  68 CALM      30.31R
FORT MADISON * CLEAR     18   5  57 CALM      30.33R
KEOKUK *       PTCLDY    19   7  58 E6        30.31R WCI  11
OSKALOOSA *    CLOUDY    23  14  69 NW10      30.31R WCI  12
CENTERVILLE *  MOCLDY    25  10  54 N8        30.32R WCI  16
OTTUMWA        CLOUDY    23  11  60 NW8G18    30.30R WCI  14
WASHINGTON *   MOCLDY    18  10  73 NE6       30.31R WCI   9
$$

ABBREVIATIONS USED IN REMARKS
   TC - TEMPERATURES IN CELSIUS
  WCI - WIND CHILL INDEX
   HX - HEAT INDEX
  VSB - VISIBILITY
$$


USA.gov is the U.S. government's official web portal to all federal, state and local government web resources and services.